Lapse_Rate
5.7 5.8 5.9 5.6 5.3 5.0 4.8 5.3 5.5 5.3 5.7 6.4 7.7 7.8 8.1 7.7 7.7 7.9 8.6 8.5 8.8 8.3 7.7 8.2 8.1 7.6 6.5 6.9 7.0 7.9 8.7 9.3 8.9 7.9 7.1 7.2 7.0 7.0 6.5 6.5 6.3 6.5 6.5 6.8 6.8 6.2 5.7
6.2 6.0 5.8 5.9 5.4 5.2 4.6 4.9 5.1 5.5 5.6 5.8 7.7 8.0 8.2 8.1 7.8 8.0 8.3 8.6 9.1 7.9 7.9 7.7 7.9 8.0 6.9 6.6 8.1 8.6 8.8 8.7 8.7 8.2 6.9 6.7 7.1 6.9 6.8 6.6 6.5 6.1 6.5 6.5 6.1 6.5 6.8
5.4 5.8 5.9 5.7 5.8 5.4 4.9 4.4 4.5 5.1 5.6 5.9 7.7 8.1 8.0 8.0 8.0 8.2 8.2 8.7 9.2 8.2 7.9 7.8 8.2 8.5 7.5 6.2 8.2 8.6 9.0 8.7 8.9 8.3 7.5 7.5 6.9 7.0 7.0 6.5 7.0 6.5 6.5 6.5 6.3 6.6 6.5
6.0 5.6 5.6 5.8 5.7 5.7 5.1 4.3 4.0 4.8 5.4 5.8 6.7 8.2 8.1 8.4 8.1 8.2 8.2 8.3 9.2 8.3 7.3 7.7 8.3 7.9 6.5 8.1 8.4 8.2 8.4 8.6 8.6 8.4 8.0 6.9 6.9 7.1 7.1 6.3 6.5 6.5 6.5 6.5 6.5 6.6 6.6
4.7 6.0 5.7 5.9 6.0 5.7 5.5 4.1 3.8 4.4 5.3 5.5 6.2 7.9 8.0 8.4 8.1 7.9 8.1 8.3 7.3 6.8 7.6 8.1 7.0 6.8 6.7 8.5 7.7 8.5 8.6 7.9 8.8 7.7 6.9 7.6 7.0 6.9 6.8 6.5 6.5 6.5 6.5 6.5 6.5 6.6 6.5
4.8 5.1 5.8 5.7 6.0 6.0 5.6 3.9 3.3 4.2 5.3 5.2 5.8 6.9 7.9 8.2 8.0 8.1 8.2 7.1 6.6 6.8 7.0 8.4 8.0 7.3 7.1 7.2 7.7 8.0 8.1 8.8 7.8 6.8 6.9 7.1 7.0 6.5 6.5 6.5 6.5 6.5 6.5 6.5 6.5 6.5 6.5
5.5 4.8 5.1 5.5 6.0 6.2 6.0 3.8 3.5 3.7 4.5 5.1 5.5 5.9 7.0 7.9 8.1 8.8 6.8 4.5 5.3 5.8 6.5 6.0 6.6 6.2 7.6 7.1 8.0 7.8 8.7 7.5 6.9 6.7 6.5 6.8 6.5 6.5 6.5 6.5 6.5 6.5 6.5 6.5 6.5 6.5 6.5
6.4 6.0 5.2 4.9 5.3 6.3 5.9 3.8 3.6 3.7 4.3 5.0 5.2 5.3 5.9 7.1 8.2 8.2 6.9 5.6 7.3 7.3 6.1 6.1 6.9 7.6 8.1 6.3 7.0 7.8 7.9 6.7 6.5 6.5 6.5 6.5 6.5 6.5 6.5 6.5 6.5 6.5 6.5 6.5 6.5 6.5 6.5
6.9 6.8 6.4 4.8 4.4 4.7 5.5 4.7 3.7 3.1 4.5 4.9 4.9 4.9 5.3 7.0 8.3 7.0 5.2 6.6 7.6 7.4 6.2 7.0 7.6 7.5 7.7 7.0 7.0 6.7 6.8 6.9 6.5 6.5 6.5 6.5 6.5 6.5 6.5 6.5 6.5 6.5 6.5 6.5 6.5 6.5 6.5
7.6 7.2 7.0 6.6 4.3 3.8 5.2 4.3 4.1 3.4 4.1 5.1 4.5 4.7 5.2 7.3 6.6 7.2 6.8 7.4 7.7 6.9 6.5 6.5 6.7 7.2 7.6 6.2 6.7 7.0 6.6 7.1 6.6 6.5 6.5 6.5 6.5 6.5 6.5 6.5 6.5 6.5 6.5 6.5 6.5 6.5 6.5
8.7 7.6 7.3 5.9 6.2 4.6 4.8 4.5 4.1 3.7 3.1 5.1 4.5 4.4 5.2 7.2 6.3 7.0 7.3 7.3 7.3 6.0 6.5 6.5 6.5 7.4 7.5 6.8 7.1 6.7 6.8 6.5 6.5 6.5 6.5 6.5 6.5 6.5 6.5 6.5 6.5 6.5 6.5 6.5 6.5 6.5 6.5
8.7 8.3 7.3 5.8 6.3 5.3 4.6 4.4 3.8 3.6 3.0 4.2 4.5 4.4 4.7 5.4 6.6 7.4 7.5 7.3 5.9 6.5 6.5 6.5 6.6 6.5 6.5 6.5 6.7 6.8 6.9 6.6 7.0 6.5 6.5 6.5 6.8 6.5 6.5 6.5 6.5 6.5 6.5 6.5 6.5 6.5 6.5
8.4 8.0 6.4 5.7 6.5 5.9 6.0 4.1 3.5 3.4 3.6 4.2 4.4 4.7 5.0 7.4 7.0 7.4 6.8 5.7 6.5 6.5 6.5 6.5 6.5 6.5 6.5 6.5 6.5 6.5 6.5 6.5 6.5 6.5 6.5 6.5 6.5 6.5 6.6 6.5 6.5 6.5 6.5 6.5 6.5 6.5 6.5
7.9 7.9 7.0 5.8 6.7 5.6 5.3 4.8 3.3 3.6 3.5 4.5 4.9 5.1 6.1 8.6 7.3 6.8 6.2 6.4 6.5 6.5 6.5 6.5 6.5 6.5 6.5 6.5 6.5 6.5 6.5 6.5 6.5 6.5 6.5 6.5 6.5 6.5 6.5 6.5 6.5 6.5 6.5 6.5 6.5 6.5 6.5
8.5 7.2 7.1 7.2 6.6 5.6 5.2 4.3 3.2 3.7 4.5 4.4 5.3 3.9 5.7 6.2 7.0 5.9 6.0 6.5 6.5 6.5 6.5 6.5 6.5 6.5 6.5 6.5 6.5 6.5 6.5 6.5 6.5 6.5 6.5 6.5 6.5 6.5 6.5 6.5 6.5 6.5 6.5 6.5 6.5 6.5 6.5
8.8 7.8 7.7 8.7 7.6 5.3 5.7 3.8 3.4 3.9 4.5 4.7 3.8 4.7 6.6 6.8 6.7 6.4 6.4 6.5 6.5 6.5 6.5 6.5 6.5 6.5 6.5 6.5 6.5 6.5 6.5 6.5 6.5 6.5 6.5 6.5 6.5 6.5 6.5 6.4 6.3 6.5 6.5 6.5 6.5 6.5 6.5
9.2 8.9 8.1 8.9 7.7 5.5 6.5 4.5 3.4 4.4 2.7 5.5 5.0 5.8 6.1 7.2 5.5 6.2 6.5 6.5 6.5 6.8 6.5 6.5 6.5 6.5 6.5 6.5 6.5 6.5 6.5 6.5 6.5 6.5 6.4 6.5 6.5 6.5 6.5 6.5 6.5 6.5 6.5 6.5 6.5 6.5 6.5
8.9 8.9 8.2 8.4 7.4 6.0 6.1 5.8 3.2 4.9 2.9 5.4 5.4 6.5 7.1 5.7 6.3 6.4 6.5 6.5 6.7 6.4 6.7 6.5 6.5 6.5 6.5 6.5 6.5 6.5 6.5 6.5 6.4 6.5 6.5 6.5 6.5 6.5 6.5 6.5 6.5 6.5 6.5 6.5 6.5 6.5 6.5
9.1 8.7 8.6 7.4 6.1 6.3 6.0 5.4 3.3 4.0 2.4 4.1 5.5 6.1 7.3 6.5 6.5 6.5 6.5 6.5 6.6 6.5 6.5 6.5 6.5 6.5 6.5 6.5 6.5 6.5 6.5 6.6 6.4 6.5 6.5 6.5 6.5 6.5 6.5 6.5 6.5 6.5 6.5 6.5 6.5 6.5 6.5
8.8 8.6 8.1 7.2 5.9 5.0 5.3 4.7 3.5 5.2 4.2 4.7 4.8 6.5 6.6 6.2 6.0 6.5 6.5 6.5 6.5 6.5 6.5 6.5 6.5 6.5 6.5 6.5 6.5 6.5 6.5 6.5 6.5 6.4 6.5 6.2 6.5 6.5 6.5 6.5 6.5 6.5 6.5 6.5 6.5 6.5 6.5
9.0 8.9 7.8 7.4 4.0 5.2 4.9 3.9 3.9 5.3 5.7 4.1 4.5 5.9 5.5 6.5 6.3 6.5 6.5 6.5 6.5 6.5 6.5 6.5 6.5 6.5 6.5 6.5 6.5 6.5 6.5 6.5 6.5 6.5 6.4 6.5 6.5 6.5 6.5 6.5 6.5 6.5 6.5 6.5 6.5 6.5 6.5
9.1 8.7 7.9 6.7 6.1 6.0 4.5 3.5 5.4 4.6 6.0 4.1 4.6 5.0 4.9 5.4 5.3 6.5 6.5 6.5 6.5 6.5 6.5 6.5 6.5 6.5 6.5 6.5 6.5 6.5 6.5 6.5 6.5 6.5 6.5 6.5 6.5 6.5 6.5 6.5 6.5 6.5 6.5 6.5 6.5 6.5 6.5
9.1 8.9 7.4 6.6 6.3 6.3 4.8 4.0 3.7 6.0 4.6 3.8 3.4 3.7 3.7 5.9 6.5 6.5 6.5 6.5 6.5 6.5 6.5 6.4 6.5 6.5 6.5 6.5 6.1 5.7 5.6 5.7 6.2 6.5 6.5 6.5 6.5 6.5 6.5 6.5 6.5 6.5 6.5 6.5 6.5 6.5 6.5
9.0 8.5 7.2 7.2 6.4 6.1 4.8 5.5 5.2 6.2 5.1 3.6 2.6 2.3 3.8 6.5 6.5 6.5 6.5 6.4 6.5 6.5 6.5 6.4 5.3 6.5 6.5 6.4 5.8 5.6 5.9 5.4 5.7 6.4 5.9 6.5 6.5 6.5 6.5 6.5 6.5 6.5 6.5 6.5 6.5 6.5 6.5
8.8 8.0 7.1 5.5 6.6 6.0 5.2 5.7 6.0 5.8 6.1 3.5 1.7 2.7 2.7 6.5 6.0 6.4 6.4 6.5 5.8 5.4 6.3 6.3 6.3 6.0 5.5 6.5 6.5 6.5 6.5 6.5 6.5 6.5 6.5 6.5 6.5 6.5 6.5 6.5 6.5 6.5 6.5 6.5 6.5 6.5 6.5
8.6 7.6 6.3 6.2 6.3 5.7 6.0 6.4 6.2 6.0 6.5 3.3 1.2 0.7 2.1 5.5 6.3 5.3 6.3 5.8 6.5 6.5 6.5 6.4 6.9 6.0 6.2 6.5 6.5 6.5 6.5 6.5 6.5 6.5 6.5 6.5 6.5 6.5 6.5 6.5 6.5 6.5 6.5 6.3 6.4 6.5 6.3
8.9 7.8 6.4 6.4 5.9 5.7 6.0 6.9 6.7 6.0 6.3 3.6 1.6 1.3 1.2 3.7 4.6 4.7 6.1 6.1 5.1 5.7 6.5 6.0 6.4 6.3 5.8 6.5 6.5 6.5 6.5 6.5 6.5 6.5 6.5 6.5 6.5 6.5 6.5 6.5 6.5 6.5 6.2 6.3 6.5 6.5 6.1
8.7 7.6 6.3 6.9 6.2 5.8 5.9 6.7 6.7 6.3 5.9 3.8 2.3 2.3 1.1 3.9 5.5 4.4 3.3 4.0 4.7 4.2 6.5 5.4 5.9 5.9 6.2 6.5 6.5 6.5 6.5 6.5 6.5 6.5 6.5 6.5 6.5 6.5 6.5 6.5 6.5 5.7 6.3 6.5 6.2 5.9 6.1
7.8 6.5 5.6 6.5 6.2 5.6 6.0 6.5 6.6 6.3 5.7 4.4 3.6 3.5 1.7 1.2 6.1 5.9 4.8 4.4 3.8 3.6 3.7 4.6 5.6 5.8 5.4 6.5 6.5 6.5 6.5 6.5 6.5 6.5 6.5 6.5 6.5 6.5 6.5 6.5 5.7 5.8 6.0 5.3 4.9 5.8 6.1
Wind_Speed
23 24 23 22 19 17 16 16 15 16 14 16 17 14 15 14 12 12 12 12 13 16 14 11 9 10 5 2 7 7 3 2 6 3 3 8 11 6 15 10 4 15 5 13 12 5 3
27 25 25 24 23 22 18 17 16 16 15 14 16 14 13 12 12 13 13 12 13 16 14 11 7 6 1 7 6 13 5 2 4 3 1 6 5 0 5 5 15 8 17 8 9 11 3
25 27 27 25 25 26 21 17 16 17 15 15 15 15 12 13 13 13 12 12 12 14 15 12 7 3 4 14 8 7 4 3 3 5 7 10 1 7 9 3 9 10 8 8 7 10 5
28 26 27 28 25 26 22 18 16 17 15 14 14 14 11 10 12 11 11 12 14 13 11 11 6 1 5 7 6 3 5 2 5 3 3 8 5 2 4 9 3 9 5 10 3 10 7
37 31 27 28 28 25 25 20 17 17 15 13 12 12 10 9 11 11 11 13 16 12 12 7 2 4 6 3 3 2 3 4 5 4 5 6 2 4 4 4 2 5 7 15 5 1 6
40 36 33 29 27 28 26 23 19 15 14 12 11 11 10 8 9 9 13 18 12 7 6 6 4 4 5 4 2 1 4 4 3 7 4 3 3 2 5 5 11 11 8 12 5 6 5
40 41 35 35 30 27 23 22 18 14 12 10 10 9 8 7 7 10 6 4 3 1 3 6 5 4 7 0 5 3 4 3 3 2 3 2 2 6 9 9 7 10 16 8 7 9 5
39 39 39 34 38 27 18 22 17 12 12 10 8 7 6 6 9 9 1 2 3 3 5 10 10 6 5 4 2 2 1 3 4 3 7 4 6 6 8 13 10 11 11 8 5 11 4
39 38 39 38 40 40 18 21 18 13 13 10 7 6 4 6 6 4 3 4 3 4 1 1 4 3 3 5 1 2 4 2 2 4 7 3 3 6 8 10 9 10 13 9 5 8 2
41 40 36 39 38 41 24 21 19 15 10 10 6 5 3 5 1 2 2 2 2 1 3 2 2 1 3 4 0 1 2 3 1 6 4 3 2 7 10 9 7 3 11 17 14 7 3
39 37 37 41 35 35 24 23 18 13 10 8 7 5 5 4 2 1 3 5 1 2 2 1 1 2 3 1 2 3 2 3 4 6 5 2 3 8 15 7 9 4 18 19 19 10 3
40 37 39 42 38 32 31 22 18 16 14 7 6 6 5 4 1 2 6 2 2 3 3 1 2 3 3 2 3 5 4 6 6 8 8 4 3 4 3 6 11 8 16 8 5 5 2
37 39 41 47 40 33 30 26 23 20 15 8 6 7 8 8 3 7 5 2 2 2 3 4 2 2 2 1 2 4 3 2 3 4 5 5 4 1 4 1 7 17 7 3 3 3 3
37 40 43 60 34 39 43 29 26 21 16 11 9 9 3 3 6 6 2 1 4 5 4 4 3 1 3 5 3 2 2 5 6 4 3 4 4 8 8 5 3 3 4 4 5 4 3
35 44 36 47 38 37 44 31 26 22 17 14 12 2 2 3 6 2 2 1 5 4 2 4 6 2 2 3 0 4 2 2 2 4 4 3 4 6 2 4 2 3 4 3 5 2 4
41 33 36 42 38 37 30 30 28 23 21 18 3 4 3 10 4 1 1 1 2 1 1 4 1 2 3 4 2 2 2 4 3 3 0 3 5 6 4 3 7 5 1 3 3 3 3
40 41 35 41 38 40 26 28 31 27 26 23 2 4 3 10 3 1 2 3 2 4 2 2 3 3 3 2 2 3 2 2 2 2 4 2 3 3 2 6 3 4 3 2 3 3 3
41 41 38 42 42 28 37 32 34 29 28 12 3 3 5 4 2 2 2 5 3 4 2 2 1 5 6 8 3 2 3 2 3 2 2 2 4 3 0 4 3 1 1 3 2 3 2
41 42 42 44 44 40 23 34 35 33 31 4 5 3 2 3 3 3 3 3 2 3 3 2 3 1 3 5 4 4 4 1 4 4 1 1 2 3 5 5 3 0 4 4 3 2 2
40 41 41 46 42 37 37 35 34 32 34 4 3 4 2 2 2 3 5 5 4 1 1 2 1 2 0 1 3 3 4 1 3 4 3 2 2 4 5 5 4 5 6 5 5 3 2
40 40 43 45 45 18 36 35 33 31 32 2 3 4 5 5 5 5 2 8 7 4 2 1 1 2 1 3 4 4 4 3 2 1 3 3 3 3 4 5 2 1 4 7 6 5 5
40 38 42 44 45 22 34 33 31 31 23 2 4 4 2 3 4 8 5 6 9 3 2 2 3 6 7 5 2 6 7 3 3 2 0 2 1 3 3 2 4 2 4 3 5 4 5
37 39 42 46 42 25 33 32 31 27 13 3 1 1 4 3 5 5 4 4 7 7 3 5 3 5 6 2 2 2 2 4 5 7 4 3 4 2 2 1 0 4 6 5 2 2 3
35 36 44 43 43 29 29 29 28 27 8 2 3 3 3 2 4 5 6 4 10 4 4 4 7 4 1 1 2 2 4 5 6 4 4 5 4 2 2 3 1 4 1 1 6 5 4
33 39 44 49 18 31 30 31 26 25 14 2 1 3 3 3 3 6 7 7 6 6 5 4 3 1 1 1 3 4 2 3 4 5 2 2 3 1 3 3 2 2 2 2 3 1 4
31 38 44 13 25 27 24 22 22 22 18 3 2 2 3 6 2 4 5 5 4 3 2 3 1 0 2 1 1 4 4 4 3 0 3 2 2 3 1 2 4 3 0 3 3 1 4
30 31 37 33 19 22 20 15 15 18 16 3 2 3 4 4 4 4 3 5 4 4 4 3 2 2 3 2 1 2 2 3 4 6 3 1 1 3 1 1 2 3 4 3 3 2 5
27 32 38 33 21 20 16 11 13 16 16 4 1 1 3 3 6 7 5 4 3 2 4 2 3 3 2 1 2 1 2 2 2 4 6 5 4 3 2 1 3 5 3 1 3 4 6
24 32 37 4 22 20 16 11 13 21 14 7 3 2 5 6 3 3 6 5 4 1 4 2 3 2 2 3 1 2 1 2 3 3 1 2 4 4 4 4 5 2 10 5 6 5 3
Wind_Direction
274 271 274 268 265 261 266 272 277 280 291 301 305 309 320 331 323 320 317 311 324 310 314 299 299 323 356 315 250 194 189 314 305 113 241 203 200 256 209 201 222 214 261 225 203 174 246
286 280 269 269 263 260 252 260 267 280 285 295 305 309 315 324 314 311 310 308 311 312 306 293 289 316 301 272 246 153 129 274 262 177 85 264 192 245 267 255 193 193 230 245 174 193 226
285 287 282 271 264 260 247 247 257 267 278 289 299 305 316 321 320 312 307 310 312 310 306 309 288 286 260 251 279 336 227 226 196 286 170 223 53 217 345 221 243 243 193 230 180 194 161
292 286 285 281 270 263 249 235 244 261 269 283 294 304 315 315 313 313 310 312 306 302 286 297 276 311 246 261 252 268 285 280 213 257 157 153 162 25 250 325 293 192 245 187 107 169 117
334 296 288 286 283 268 251 226 232 250 261 277 292 302 306 312 316 312 314 306 301 287 280 269 242 174 267 232 233 266 211 242 267 119 100 130 114 216 136 201 224 182 199 205 125 219 113
332 329 301 285 282 279 276 219 214 243 254 269 287 296 303 309 306 315 317 306 288 284 279 219 242 271 269 279 13 271 262 253 211 125 76 67 30 298 156 182 196 188 178 185 169 156 144
327 326 326 306 289 282 288 223 222 219 246 263 279 290 302 317 305 319 332 344 51 182 257 196 192 211 297 337 321 232 271 107 128 139 130 165 204 229 185 202 286 237 188 179 174 158 120
323 322 321 323 316 284 269 223 219 219 234 251 268 284 301 316 315 316 11 257 92 207 306 229 255 257 262 114 304 205 71 150 182 162 136 150 230 260 166 200 259 182 132 134 120 148 156
320 318 318 324 323 317 248 217 217 202 232 244 253 270 287 294 313 305 202 239 322 4 213 195 218 275 223 146 299 327 352 193 134 192 201 201 150 171 145 228 232 211 162 147 166 152 299
315 314 316 312 317 326 255 209 212 208 223 241 239 253 268 300 331 178 218 190 175 23 60 230 175 209 182 107 89 218 320 1 215 212 160 253 204 170 178 208 214 226 185 158 135 134 134
314 311 321 320 308 308 261 208 208 199 190 240 243 238 244 225 298 226 117 104 38 71 76 126 259 235 244 166 238 36 53 69 237 199 208 66 31 157 181 198 183 289 148 146 139 130 195
316 314 319 324 303 308 299 201 190 201 193 208 233 237 192 116 246 239 130 146 60 71 282 153 126 302 308 144 180 148 225 179 211 92 69 56 304 45 145 238 176 140 89 59 112 130 44
317 323 318 327 300 307 313 191 186 195 180 171 218 196 156 177 163 165 175 73 92 83 212 166 152 355 116 159 186 217 192 1 87 82 16 23 345 311 197 77 38 114 105 81 32 35 195
321 322 328 319 294 324 310 200 179 185 165 168 192 156 217 126 159 152 111 130 76 246 173 103 89 329 73 5 35 213 53 6 14 54 98 69 20 358 345 39 153 113 129 142 145 165 215
321 329 328 317 322 325 309 183 173 169 160 163 169 193 178 159 170 122 114 118 171 233 29 106 144 65 42 302 25 358 85 220 359 61 93 113 41 319 2 336 70 275 51 166 112 66 82
326 318 315 323 319 321 313 170 164 162 156 165 173 156 154 159 180 139 169 217 196 226 262 183 133 158 140 168 123 290 21 336 29 36 283 92 88 328 319 13 15 91 201 50 11 117 136
322 322 316 327 317 315 296 186 163 169 152 176 177 137 180 161 91 189 203 195 268 160 242 8 107 116 128 199 176 184 84 347 351 300 1 144 100 292 22 26 16 9 23 11 120 117 140
321 324 321 328 319 299 301 186 160 168 143 161 167 145 173 122 148 215 209 169 214 161 188 268 48 130 167 186 199 104 110 57 268 94 77 11 98 68 210 279 288 32 78 1 108 306 41
320 322 326 329 316 315 196 176 161 171 149 147 140 124 204 131 182 219 159 173 255 193 177 227 165 340 179 163 119 111 110 332 58 25 107 144 128 105 2 352 355 222 179 249 84 61 203
317 322 334 326 320 316 169 171 164 173 166 152 120 135 148 179 253 201 171 164 187 61 109 340 31 351 168 158 118 112 105 132 357 357 2 18 112 145 167 200 160 180 188 203 129 112 199
319 326 332 325 331 202 164 167 164 174 181 105 155 193 173 177 229 215 216 165 139 167 216 171 298 264 91 126 101 102 107 93 335 315 12 65 94 73 35 31 34 245 194 204 183 184 153
316 325 326 328 321 268 163 163 174 173 169 115 142 141 111 182 173 175 230 165 152 115 93 187 169 49 72 78 264 142 138 158 182 210 275 69 132 95 353 3 12 334 289 247 234 188 229
318 320 325 321 315 194 166 166 173 172 147 153 210 40 117 155 135 128 209 184 111 118 58 66 58 96 74 110 25 52 73 114 143 157 164 121 128 90 212 115 0 302 237 223 201 75 164
320 324 321 313 306 170 172 169 170 173 161 123 185 112 102 179 126 178 141 101 114 87 120 45 38 93 216 209 314 12 60 87 78 72 122 137 124 115 192 42 9 254 60 42 127 51 40
328 327 323 317 287 164 175 173 172 180 174 74 82 107 127 113 133 104 103 111 86 50 60 85 44 140 347 172 92 82 9 30 32 38 29 89 106 103 133 177 226 318 265 150 148 74 16
335 331 330 317 153 155 171 172 177 182 177 68 62 89 92 119 345 313 109 138 120 113 44 74 96 171 81 97 123 154 184 160 186 238 353 45 84 108 95 154 227 254 48 35 69 245 39
326 331 328 334 144 154 155 164 184 178 172 89 68 63 84 102 350 358 104 173 144 132 124 118 128 68 61 66 120 150 211 151 153 167 169 73 25 165 244 234 304 14 350 6 124 221 42
329 336 326 322 159 147 142 176 189 179 163 77 14 348 108 95 28 15 34 50 45 61 129 217 79 343 55 110 140 292 122 220 100 157 163 160 152 201 136 134 297 322 21 175 160 47 59
333 332 331 216 143 141 143 180 178 160 133 98 83 38 74 78 123 85 72 42 43 20 127 55 139 84 169 99 56 92 60 39 153 205 30 168 185 155 145 185 201 54 104 67 61 90 25